Location: Champs
(48.8539°N, 2.6040°E)
Time: 18:13:03
(UTC+00:00)

Cosmos 1538 Rocket - Pass Details

Date: 04 June 2022
Orbit: 752 x 791 km, 74.0° (Epoch: 02 July)

Event Time Altitude Azimuth Distance (km) Brightness Sun altitude
Rises 20:56:03 0° 328° (NNW) 3,238 9.5 -9.0°
Reaches altitude 10° 20:58:43 10° 317° (NW) 2,302 8.2 -9.3°
Maximum altitude 21:03:03 27° 260° (W) 1,416 5.7 -9.7°
Drops below altitude 10° 21:07:21 10° 203° (SSW) 2,274 6.2 -10.2°
Enters shadow 21:09:50 - 192° (SSW) 3,138 6.8 -10.4°
